Meteo pe oră la Dabaozi

Astăzi, 22 Aprilie, Joi

Timp Temperatura Precipitaţii Vânt Presiune Umiditate
00:00 +19°C° 0 mm 0 m/s 716 mmHg 98%
01:00 +18°C° 0 mm 0 m/s 716 mmHg 98%
02:00 +18°C° 0 mm 0 m/s 716 mmHg 98%
03:00 +20°C° 0 mm 1 m/s 716 mmHg 98%
04:00 +20°C° 0 mm 1 m/s 716 mmHg 98%
05:00 +20°C° 0 mm 1 m/s 716 mmHg 98%
06:00 +20°C° 0 mm 1 m/s 716 mmHg 97%
07:00 +18°C° 0 mm 0 m/s 717 mmHg 97%
08:00 +19°C° 0 mm 0 m/s 717 mmHg 96%
09:00 +20°C° 0 mm 0 m/s 717 mmHg 94%
10:00 +20°C° 0 mm 0 m/s 717 mmHg 93%
11:00 +21°C° 0 mm 0 m/s 717 mmHg 89%
12:00 +24°C° 0 mm 1 m/s 716 mmHg 86%
13:00 +25°C° 0 mm 1 m/s 716 mmHg 83%
14:00 +26°C° 0 mm 1 m/s 715 mmHg 81%
15:00 +26°C° 0 mm 1 m/s 715 mmHg 79%
16:00 +26°C° 0 mm 1 m/s 714 mmHg 78%
17:00 +25°C° 0 mm 1 m/s 714 mmHg 83%
18:00 +24°C° 0 mm 1 m/s 714 mmHg 89%
19:00 +23°C° 0 mm 1 m/s 715 mmHg 94%
20:00 +22°C° 0 mm 1 m/s 715 mmHg 95%
21:00 +22°C° 0 mm 1 m/s 715 mmHg 96%
22:00 +22°C° 0 mm 1 m/s 715 mmHg 97%
23:00 +22°C° 0 mm 1 m/s 715 mmHg 97%

Mâine, 23 Aprilie, Vineri

Timp Temperatura Precipitaţii Vânt Presiune Umiditate
00:00 +21°C° 0 mm 1 m/s 714 mmHg 97%
01:00 +21°C° 0 mm 1 m/s 714 mmHg 97%
02:00 +21°C° 0 mm 1 m/s 714 mmHg 98%
03:00 +21°C° 0 mm 1 m/s 714 mmHg 98%
04:00 +21°C° 0 mm 1 m/s 714 mmHg 98%
05:00 +21°C° 0 mm 1 m/s 714 mmHg 96%
06:00 +22°C° 0 mm 1 m/s 714 mmHg 95%
07:00 +22°C° 0 mm 1 m/s 715 mmHg 93%
08:00 +23°C° 0 mm 1 m/s 715 mmHg 89%
09:00 +24°C° 0 mm 1 m/s 715 mmHg 84%
10:00 +26°C° 0 mm 2 m/s 715 mmHg 80%
11:00 +27°C° 0.1 mm 2 m/s 715 mmHg 76%
12:00 +28°C° 0.1 mm 3 m/s 714 mmHg 71%
13:00 +29°C° 0.1 mm 3 m/s 713 mmHg 67%
14:00 +29°C° 0.3 mm 3 m/s 713 mmHg 68%
15:00 +29°C° 0.3 mm 3 m/s 713 mmHg 70%
16:00 +29°C° 0.3 mm 3 m/s 712 mmHg 71%
17:00 +27°C° 0.6 mm 3 m/s 713 mmHg 79%
18:00 +25°C° 0.6 mm 2 m/s 713 mmHg 86%
19:00 +23°C° 0.6 mm 2 m/s 713 mmHg 93%
20:00 +21°C° 0 mm 2 m/s 714 mmHg 94%
21:00 +21°C° 0 mm 2 m/s 714 mmHg 96%
22:00 +20°C° 0 mm 2 m/s 714 mmHg 97%
23:00 +20°C° 0 mm 2 m/s 714 mmHg 97%

Poimâine, 24 Aprilie, Sâmbătă

Timp Temperatura Precipitaţii Vânt Presiune Umiditate
00:00 +21°C° 0 mm 1 m/s 714 mmHg 97%
01:00 +21°C° 0 mm 1 m/s 714 mmHg 97%
02:00 +21°C° 0 mm 1 m/s 714 mmHg 97%
03:00 +21°C° 0 mm 1 m/s 714 mmHg 97%
04:00 +21°C° 0 mm 1 m/s 714 mmHg 97%
05:00 +21°C° 0 mm 1 m/s 714 mmHg 97%
06:00 +21°C° 0 mm 1 m/s 715 mmHg 96%
07:00 +21°C° 0 mm 1 m/s 715 mmHg 95%
08:00 +21°C° 0.1 mm 2 m/s 715 mmHg 94%
09:00 +21°C° 0.1 mm 2 m/s 716 mmHg 93%
10:00 +21°C° 0.1 mm 2 m/s 716 mmHg 91%
11:00 +20°C° 0.6 mm 2 m/s 716 mmHg 93%
12:00 +18°C° 0.6 mm 3 m/s 716 mmHg 94%
13:00 +17°C° 0.6 mm 3 m/s 716 mmHg 95%
14:00 +17°C° 0.6 mm 3 m/s 716 mmHg 94%
15:00 +16°C° 0.6 mm 3 m/s 716 mmHg 94%
16:00 +16°C° 0.6 mm 3 m/s 717 mmHg 93%
17:00 +14°C° 0.5 mm 3 m/s 717 mmHg 93%
18:00 +14°C° 0.5 mm 3 m/s 718 mmHg 93%
19:00 +14°C° 0.5 mm 3 m/s 719 mmHg 93%
20:00 +14°C° 0.1 mm 2 m/s 719 mmHg 93%
21:00 +14°C° 0.1 mm 2 m/s 720 mmHg 93%
22:00 +14°C° 0.1 mm 2 m/s 720 mmHg 93%
23:00 +13°C° 0.2 mm 2 m/s 720 mmHg 93%

25 Aprilie, Duminică

Timp Temperatura Precipitaţii Vânt Presiune Umiditate
00:00 +13°C° 0.2 mm 2 m/s 720 mmHg 93%
01:00 +13°C° 0.2 mm 2 m/s 720 mmHg 94%
02:00 +13°C° 0.1 mm 2 m/s 720 mmHg 94%
03:00 +12°C° 0.1 mm 2 m/s 720 mmHg 94%
04:00 +12°C° 0.1 mm 2 m/s 720 mmHg 94%
05:00 +12°C° 0.1 mm 2 m/s 720 mmHg 93%
06:00 +12°C° 0.1 mm 2 m/s 721 mmHg 93%
07:00 +12°C° 0.1 mm 1 m/s 721 mmHg 93%
08:00 +13°C° 0.1 mm 1 m/s 721 mmHg 93%
09:00 +13°C° 0.1 mm 1 m/s 721 mmHg 92%
10:00 +13°C° 0.1 mm 1 m/s 722 mmHg 92%
11:00 +13°C° 0.1 mm 1 m/s 721 mmHg 92%
12:00 +13°C° 0.1 mm 2 m/s 721 mmHg 91%
13:00 +13°C° 0.1 mm 2 m/s 720 mmHg 91%
14:00 +13°C° 0 mm 1 m/s 720 mmHg 91%
15:00 +13°C° 0 mm 1 m/s 720 mmHg 92%
16:00 +13°C° 0 mm 1 m/s 720 mmHg 92%
17:00 +13°C° 0.3 mm 1 m/s 720 mmHg 93%
18:00 +13°C° 0.3 mm 1 m/s 720 mmHg 94%
19:00 +13°C° 0.3 mm 1 m/s 720 mmHg 96%
20:00 +13°C° 0.3 mm 1 m/s 721 mmHg 96%
21:00 +13°C° 0.3 mm 1 m/s 721 mmHg 97%
22:00 +13°C° 0.3 mm 1 m/s 721 mmHg 97%
23:00 +13°C° 1.4 mm 1 m/s 721 mmHg 97%

26 Aprilie, Luni

Timp Temperatura Precipitaţii Vânt Presiune Umiditate
00:00 +13°C° 1.4 mm 1 m/s 721 mmHg 97%
01:00 +13°C° 1.4 mm 1 m/s 721 mmHg 98%
02:00 +13°C° 2 mm 1 m/s 721 mmHg 98%
03:00 +13°C° 2 mm 1 m/s 721 mmHg 98%
04:00 +12°C° 2 mm 0 m/s 721 mmHg 98%
05:00 +12°C° 0.1 mm 0 m/s 721 mmHg 97%
06:00 +12°C° 0.1 mm 0 m/s 721 mmHg 97%
07:00 +13°C° 0.1 mm 0 m/s 721 mmHg 96%
08:00 +14°C° 0 mm 0 m/s 721 mmHg 92%
09:00 +14°C° 0 mm 0 m/s 721 mmHg 88%
10:00 +15°C° 0 mm 0 m/s 721 mmHg 85%
11:00 +16°C° 0 mm 0 m/s 721 mmHg 82%
12:00 +19°C° 0 mm 1 m/s 720 mmHg 78%
13:00 +20°C° 0 mm 1 m/s 720 mmHg 75%
14:00 +19°C° 0 mm 1 m/s 719 mmHg 78%
15:00 +19°C° 0 mm 1 m/s 719 mmHg 81%
16:00 +19°C° 0 mm 1 m/s 719 mmHg 83%
17:00 +18°C° 0 mm 1 m/s 719 mmHg 86%
18:00 +18°C° 0 mm 1 m/s 719 mmHg 88%
19:00 +15°C° 0 mm 0 m/s 719 mmHg 90%
20:00 +15°C° 0 mm 0 m/s 720 mmHg 90%
21:00 +15°C° 0 mm 0 m/s 720 mmHg 91%
22:00 +15°C° 0 mm 0 m/s 720 mmHg 91%
23:00 +15°C° 0 mm 0 m/s 720 mmHg 92%

27 Aprilie, Marţi

Timp Temperatura Precipitaţii Vânt Presiune Umiditate
00:00 +15°C° 0 mm 1 m/s 720 mmHg 93%
01:00 +15°C° 0 mm 1 m/s 720 mmHg 93%
02:00 +15°C° 0.4 mm 1 m/s 720 mmHg 94%
03:00 +15°C° 0.4 mm 1 m/s 720 mmHg 95%
04:00 +15°C° 0.4 mm 1 m/s 720 mmHg 96%
05:00 +15°C° 1.1 mm 1 m/s 720 mmHg 97%
06:00 +14°C° 1.1 mm 0 m/s 721 mmHg 97%
07:00 +14°C° 1.1 mm 0 m/s 721 mmHg 98%
08:00 +15°C° 0.2 mm 0 m/s 721 mmHg 95%
09:00 +15°C° 0.2 mm 0 m/s 721 mmHg 93%
10:00 +16°C° 0.2 mm 0 m/s 721 mmHg 90%
11:00 +18°C° 0.1 mm 1 m/s 721 mmHg 88%
12:00 +19°C° 0.1 mm 1 m/s 721 mmHg 85%
13:00 +19°C° 0.1 mm 1 m/s 721 mmHg 83%
14:00 +19°C° 0 mm 1 m/s 720 mmHg 84%
15:00 +19°C° 0 mm 1 m/s 720 mmHg 86%
16:00 +19°C° 0 mm 1 m/s 719 mmHg 88%
17:00 +16°C° 0 mm 0 m/s 720 mmHg 90%
18:00 +16°C° 0 mm 0 m/s 720 mmHg 91%
19:00 +15°C° 0 mm 0 m/s 720 mmHg 93%
20:00 +16°C° 0 mm 1 m/s 721 mmHg 94%
21:00 +16°C° 0 mm 1 m/s 721 mmHg 94%
22:00 +16°C° 0 mm 1 m/s 721 mmHg 95%
23:00 +16°C° 0 mm 1 m/s 721 mmHg 95%
Arată mai mult

Formular de consimțământ

Meteoprog și furnizorii noștri de servicii pot stoca și accesa date personale, precum cookies, identificatori de dispozitiv sau alte tehnologii similare pe dispozitivul dumneavoastră și procesa astfel de date pentru a personaliza conținutul și reclamele, dar și pentru a oferi caracteristici de social media și pentru a analiza traficul.

  • Stocarea și/sau accesarea informațiilor pe dispozitivul dumneavoastră

    Cookies, identificatori de dispozitiv sau alte informații pot fi stocate sau accesate pe dispozitiv în scopurile indicate mai sus.

  • Reclame și conținut personalizat, evaluarea reclamelor și a conținutului, informații despre audiențe și dezvoltarea produselor

    Reclamele și conținutul pot fi personalizate pe baza unui profil. Pot fi adăugate date suplimentare pentru a personaliza mai bine reclamele și conținutul. Performanța reclamelor și conținutului poate fi măsurată. Pot fi obținute informații despre utilizatorii care au văzut reclamele și conținutul. Aceste date pot fi utilizate pentru a dezvolta sau îmbunătăți experiența utilizatorilor, sistemele și software-ul.

Dând clic pe ‘Sunt de acord’, permiteți utilizarea cookie-urilor menționate, a identificatorilor de dispozitiv, balizelor web sau altor tehnologii similare. Setările pot fi modificate din browser-ul dispozitivului dumneavoastră.

În anumite scopuri, interesele legitime pot prima asupra consimțământului. Puteți citi mai multe informații în acest sens în Politica privind Confidențialitatea Datelor și Cookie.